Weather History for Marysville, OH

Change the Weather History Date:

Thursday, March 20, 2014

  Actual Average (KDLZ) Record (KDLZ)
Temperature  
Mean Temperature 38 °F -  
Max Temperature 45 °F 49 °F 80 °F (2012)
Min Temperature 32 °F 28 °F 13 °F (1956)
Degree Days  
Heating Degree Days 26    
Moisture  
Dew Point 29 °F    
Average Humidity 72    
Maximum Humidity 89    
Minimum Humidity 56    
Precipitation  
Precipitation 0.00 in - - ()
Sea Level Pressure  
Sea Level Pressure 30.01 in    
Wind  
Wind Speed 13 mph (WNW)    
Max Wind Speed 21 mph    
Max Gust Speed 28 mph    
Visibility 10 miles    
Events      
Averages and records for this station are not official NWS values.
T = Trace of Precipitation, MM = Missing Value Source: NWS Daily Summary

Daily Weather History Graph

Daily Weather History Graph

Search for Another Location

Airport:

Trip Planner

Search our weather history database for the weather conditions in past years. The results will help you decide how hot, cold, wet, or windy it might be!

Date:

Astronomy

Mar. 20, 2014 Rise Set
Actual Time 7:36 AM EDT 7:45 PM EDT
Civil Twilight 7:09 AM EDT 8:12 PM EDT
Nautical Twilight 6:38 AM EDT 8:44 PM EDT
Astronomical Twilight 6:05 AM EDT 9:16 PM EDT
Moon No Moon Rise 9:42 AM EDT (3/20)
Length of Visible Light 13h 02m
Length of Day
12h 08m
Waning Gibbous, 84% of the Moon is Illuminated
Mar 20
Waning Gibbous
Mar 23
Last Quarter
Mar 30
New
Apr 7
First Quarter
Apr 15
Full

Hourly Weather History & Observations

Time (EDT) Temp. Windchill Dew Point Humidity Pressure Visibility Wind Dir Wind Speed Gust Speed Precip Events Conditions
12:13 AM 38.5 °F 29.9 °F 32.2 °F 78% 29.95 in 7.0 mi West 15.0 mph 18.4 mph N/A   Overcast
12:34 AM 38.1 °F 30.2 °F 32.2 °F 79% 29.95 in 7.0 mi WNW 12.7 mph - N/A   Overcast
12:54 AM 37.4 °F 28.5 °F 31.6 °F 80% 29.96 in 7.0 mi WNW 15.0 mph 20.7 mph N/A   Overcast
1:14 AM 36.1 °F 28.2 °F 31.8 °F 84% 29.96 in 5.0 mi WNW 11.5 mph - N/A   Overcast
1:34 AM 36.0 °F 25.0 °F 32.0 °F 86% 29.96 in 5.0 mi WNW 20.7 mph 27.6 mph N/A   Overcast
1:54 AM 34.9 °F 24.2 °F 31.8 °F 89% 29.97 in 4.0 mi WNW 18.4 mph 26.5 mph N/A   Overcast
2:14 AM 34.7 °F 26.4 °F 31.6 °F 89% 29.97 in 4.0 mi West 11.5 mph 20.7 mph N/A   Overcast
2:34 AM 34.9 °F 25.3 °F 30.0 °F 82% 29.97 in 7.0 mi West 15.0 mph 19.6 mph N/A   Overcast
2:54 AM 34.9 °F 24.9 °F 29.1 °F 79% 29.98 in 10.0 mi West 16.1 mph - N/A   Overcast
3:14 AM 34.7 °F 24.7 °F 28.0 °F 77% 29.98 in 10.0 mi WNW 16.1 mph 25.3 mph N/A   Overcast
3:34 AM 34.7 °F 25.1 °F 27.9 °F 76% 29.97 in 10.0 mi WNW 15.0 mph 24.2 mph N/A   Overcast
3:54 AM 34.7 °F 24.0 °F 27.1 °F 74% 29.97 in 10.0 mi WNW 18.4 mph 25.3 mph N/A   Overcast
4:14 AM 34.7 °F 25.1 °F 26.8 °F 73% 29.97 in 10.0 mi WNW 15.0 mph 21.9 mph N/A   Overcast
4:34 AM 34.7 °F 25.5 °F 26.8 °F 73% 29.97 in 10.0 mi West 13.8 mph 19.6 mph N/A   Overcast
4:54 AM 34.3 °F 25.0 °F 27.3 °F 76% 29.97 in 10.0 mi WNW 13.8 mph - N/A   Overcast
5:14 AM 34.0 °F 24.6 °F 27.5 °F 77% 29.98 in 10.0 mi West 13.8 mph 18.4 mph N/A   Overcast
5:34 AM 34.0 °F 24.6 °F 27.7 °F 78% 29.98 in 10.0 mi West 13.8 mph 18.4 mph N/A   Overcast
5:54 AM 33.6 °F 22.2 °F 27.3 °F 78% 29.98 in 10.0 mi West 19.6 mph - N/A   Overcast
6:14 AM 33.4 °F 23.1 °F 27.1 °F 78% 29.99 in 10.0 mi WNW 16.1 mph 19.6 mph N/A   Overcast
6:34 AM 33.3 °F 24.6 °F 26.2 °F 75% 30.00 in 10.0 mi WNW 11.5 mph 16.1 mph N/A   Overcast
6:54 AM 33.1 °F 22.6 °F 26.2 °F 76% 30.00 in 10.0 mi WNW 16.1 mph 19.6 mph N/A   Overcast
7:14 AM 32.9 °F 25.3 °F 26.6 °F 78% 30.01 in 10.0 mi West 9.2 mph 18.4 mph N/A   Overcast
7:34 AM 32.9 °F 24.7 °F 26.8 °F 78% 30.02 in 10.0 mi West 10.4 mph - N/A   Overcast
7:54 AM 32.5 °F 24.2 °F 26.2 °F 78% 30.02 in 10.0 mi West 10.4 mph - N/A   Overcast
8:13 AM 32.5 °F 23.2 °F 26.4 °F 78% 30.03 in 10.0 mi West 12.7 mph - N/A   Overcast
8:34 AM 32.7 °F 22.5 °F 26.1 °F 76% 30.03 in 10.0 mi WNW 15.0 mph 18.4 mph N/A   Overcast
8:54 AM 32.9 °F 23.2 °F 25.7 °F 75% 30.03 in 10.0 mi West 13.8 mph - N/A   Overcast
9:13 AM 32.9 °F 24.1 °F 26.2 °F 76% 30.04 in 10.0 mi West 11.5 mph 18.4 mph N/A   Overcast
9:34 AM 32.9 °F 22.0 °F 25.7 °F 75% 30.04 in 10.0 mi West 17.3 mph 24.2 mph N/A   Overcast
9:54 AM 32.5 °F 22.3 °F 25.3 °F 75% 30.05 in 10.0 mi West 15.0 mph 20.7 mph N/A   Overcast
10:13 AM 33.1 °F 23.4 °F 25.5 °F 74% 30.05 in 10.0 mi West 13.8 mph 18.4 mph N/A   Overcast
10:34 AM 33.8 °F 23.9 °F 25.2 °F 71% 30.06 in 10.0 mi WNW 15.0 mph - N/A   Overcast
10:54 AM 34.7 °F 25.1 °F 25.9 °F 70% 30.06 in 10.0 mi WNW 15.0 mph - N/A   Overcast
11:13 AM 36.0 °F 27.1 °F 26.2 °F 68% 30.06 in 10.0 mi West 13.8 mph - N/A   Overcast
11:34 AM 36.1 °F 26.9 °F 25.9 °F 66% 30.06 in 10.0 mi West 15.0 mph - N/A   Overcast
11:54 AM 36.5 °F 27.8 °F 26.4 °F 67% 30.06 in 10.0 mi West 13.8 mph - N/A   Overcast
12:13 PM 37.2 °F 28.3 °F 26.8 °F 66% 30.06 in 10.0 mi West 15.0 mph 19.6 mph N/A   Overcast
12:34 PM 38.3 °F 30.9 °F 27.7 °F 66% 30.05 in 10.0 mi WNW 11.5 mph 17.3 mph N/A   Overcast
12:54 PM 39.7 °F 31.9 °F 28.8 °F 65% 30.05 in 10.0 mi WNW 13.8 mph 19.6 mph N/A   Overcast
1:13 PM 41.5 °F 34.6 °F 29.3 °F 62% 30.05 in 10.0 mi West 12.7 mph 21.9 mph N/A   Mostly Cloudy
1:34 PM 40.3 °F 31.3 °F 28.2 °F 62% 30.05 in 10.0 mi West 18.4 mph 24.2 mph N/A   Overcast
1:54 PM 42.3 °F 35.1 °F 29.1 °F 60% 30.03 in 10.0 mi West 13.8 mph 21.9 mph N/A   Overcast
2:14 PM 41.7 °F 33.7 °F 28.4 °F 59% 30.03 in 10.0 mi West 16.1 mph 24.2 mph N/A   Overcast
2:34 PM 43.9 °F 36.5 °F 29.3 °F 57% 30.02 in 10.0 mi WNW 16.1 mph - N/A   Overcast
2:54 PM 44.6 °F 37.2 °F 29.8 °F 56% 30.02 in 10.0 mi WNW 17.3 mph - N/A   Overcast
3:14 PM 43.0 °F 36.4 °F 28.9 °F 58% 30.01 in 10.0 mi WNW 12.7 mph - N/A   Overcast
3:34 PM 43.0 °F 36.0 °F 28.8 °F 57% 30.01 in 10.0 mi WNW 13.8 mph 20.7 mph N/A   Overcast
3:54 PM 43.5 °F 37.5 °F 29.3 °F 57% 30.01 in 10.0 mi WNW 11.5 mph 19.6 mph N/A   Overcast
4:14 PM 43.7 °F 37.3 °F 29.8 °F 58% 30.01 in 10.0 mi West 12.7 mph - N/A   Overcast
4:34 PM 45.0 °F 38.5 °F 30.2 °F 56% 30.01 in 10.0 mi WNW 13.8 mph - N/A   Overcast
4:54 PM 44.4 °F 37.5 °F 29.7 °F 56% 30.01 in 10.0 mi WNW 15.0 mph - N/A   Overcast
5:14 PM 44.1 °F 37.1 °F 30.4 °F 59% 30.01 in 10.0 mi West 15.0 mph 21.9 mph N/A   Overcast
5:34 PM 43.7 °F 36.6 °F 30.2 °F 59% 30.01 in 10.0 mi West 15.0 mph 18.4 mph N/A   Overcast
5:54 PM 43.7 °F 38.6 °F 30.6 °F 60% 30.01 in 10.0 mi WNW 9.2 mph - N/A   Overcast
6:14 PM 43.5 °F 38.3 °F 30.7 °F 61% 30.01 in 10.0 mi West 9.2 mph - N/A   Overcast
6:34 PM 42.8 °F 37.0 °F 31.1 °F 63% 30.01 in 10.0 mi WSW 10.4 mph - N/A   Mostly Cloudy
6:54 PM 42.3 °F 36.8 °F 31.1 °F 65% 30.01 in 10.0 mi West 9.2 mph - N/A   Mostly Cloudy
7:14 PM 41.9 °F 38.2 °F 31.3 °F 66% 30.01 in 10.0 mi West 5.8 mph - N/A   Overcast
7:34 PM 40.3 °F 37.1 °F 31.5 °F 71% 30.01 in 10.0 mi WSW 4.6 mph - N/A   Mostly Cloudy
7:54 PM 37.8 °F - 30.4 °F 75% 30.01 in 10.0 mi Calm Calm - N/A   Scattered Clouds
8:14 PM 36.1 °F - 30.6 °F 80% 30.00 in 10.0 mi Calm Calm - N/A   Mostly Cloudy
8:34 PM 36.5 °F - 31.6 °F 83% 30.01 in 10.0 mi Calm Calm - N/A   Overcast
8:54 PM 37.9 °F - 31.6 °F 78% 30.01 in 10.0 mi Calm Calm - N/A   Overcast
9:14 PM 38.3 °F - 30.7 °F 74% 30.02 in 10.0 mi Calm Calm - N/A   Mostly Cloudy
9:34 PM 35.2 °F - 30.6 °F 83% 30.03 in 10.0 mi Calm Calm - N/A   Mostly Cloudy
9:54 PM 37.4 °F 34.9 °F 30.6 °F 76% 30.03 in 10.0 mi North 3.5 mph - N/A   Mostly Cloudy
10:14 PM 36.3 °F - 29.8 °F 77% 30.03 in 10.0 mi Calm Calm - N/A   Mostly Cloudy
10:34 PM 33.8 °F - 30.2 °F 87% 30.03 in 10.0 mi Calm Calm - N/A   Overcast
10:54 PM 33.4 °F - 30.4 °F 89% 30.03 in 10.0 mi Calm Calm - N/A   Mostly Cloudy
11:14 PM 33.6 °F - 30.6 °F 89% 30.03 in 10.0 mi Calm Calm - N/A   Mostly Cloudy
11:34 PM 34.9 °F 32.0 °F 29.7 °F 81% 30.04 in 10.0 mi NNE 3.5 mph - N/A   Scattered Clouds
11:54 PM 34.2 °F - 29.3 °F 82% 30.04 in 10.0 mi Calm Calm - N/A   Scattered Clouds